WATER LEVELS

Guaranteed water level and forecast    Ústí nad Labem-Střekov

Guaranteed water level
230 cm
on 06.08.2020 more information
Forecast
235 cm
on 07.08.2020 07:00
Tendency
Slowly decreasing
on 07.08.2020 metodika tendence
Forecast
(Source data ČHMÚ a Povodí Labe)

Ústí nad Labem

Date and time (UTC) H (cm) Q (m3/s)
6. 8. 2020 16:50 245 286
6. 8. 2020 16:00 244 284
6. 8. 2020 15:00 240 275
6. 8. 2020 14:00 236 266
6. 8. 2020 13:00 236 266
6. 8. 2020 12:00 237 268
6. 8. 2020 11:00 236 266
6. 8. 2020 10:00 236 266
6. 8. 2020 09:00 236 266
6. 8. 2020 08:00 236 266
6. 8. 2020 07:00 236 266
6. 8. 2020 06:00 236 266
6. 8. 2020 05:00 235 264
6. 8. 2020 04:00 235 264

H - water level, Q - discharge
more information

Mělník

Date and time (UTC) H (cm) Q (m3/s)
6. 8. 2020 16:50 275 -
6. 8. 2020 16:00 278 -
6. 8. 2020 15:00 277 -
6. 8. 2020 14:00 276 -
6. 8. 2020 13:00 275 -
6. 8. 2020 12:00 277 -
6. 8. 2020 11:00 278 -
6. 8. 2020 10:00 277 -
6. 8. 2020 09:00 277 -
6. 8. 2020 08:00 277 -
6. 8. 2020 07:00 277 -
6. 8. 2020 06:00 277 250
6. 8. 2020 05:00 278 -
6. 8. 2020 04:00 277 -

H - water level, Q - discharge
more information

Kostelec nad Labem

Date and time (UTC) H (cm) Q (m3/s)
6. 8. 2020 17:00 402 -
6. 8. 2020 16:00 401 50
6. 8. 2020 15:00 405 47
6. 8. 2020 14:00 406 66
6. 8. 2020 13:00 405 69
6. 8. 2020 12:00 406 68
6. 8. 2020 11:00 407 69
6. 8. 2020 10:00 407 70
6. 8. 2020 09:00 407 72
6. 8. 2020 08:00 408 71
6. 8. 2020 07:00 408 72
6. 8. 2020 06:00 407 72
6. 8. 2020 05:00 408 71

H - water level, Q - discharge
more information

Přelouč

Date and time (UTC) H (cm) Q (m3/s)
6. 8. 2020 17:00 96 55
6. 8. 2020 16:00 68 31
6. 8. 2020 15:00 85 44
6. 8. 2020 14:00 87 46
6. 8. 2020 13:00 86 45
6. 8. 2020 12:00 87 46
6. 8. 2020 11:00 82 42
6. 8. 2020 10:00 87 46
6. 8. 2020 09:00 92 51
6. 8. 2020 08:00 87 46
6. 8. 2020 07:00 87 46
6. 8. 2020 06:00 88 47
6. 8. 2020 05:00 88 47

H - water level, Q - discharge
more information

Praha-Chuchle

Date and time (UTC) H (cm) Q (m3/s)
6. 8. 2020 16:50 79 190
6. 8. 2020 16:00 79 190
6. 8. 2020 15:00 80 195
6. 8. 2020 14:00 79 190
6. 8. 2020 13:00 79 190
6. 8. 2020 12:00 78 185
6. 8. 2020 11:00 78 185
6. 8. 2020 10:00 78 185
6. 8. 2020 09:00 78 185
6. 8. 2020 08:00 78 185
6. 8. 2020 07:00 79 190
6. 8. 2020 06:00 74 165
6. 8. 2020 05:00 74 165
6. 8. 2020 04:00 74 165

H - water level, Q - discharge
more information

České Budějovice

Date and time (UTC) H (cm) Q (m3/s)
6. 8. 2020 17:00 126 54.9
6. 8. 2020 16:00 131 60
6. 8. 2020 15:00 135 66
6. 8. 2020 14:00 134 65
6. 8. 2020 13:00 135 68
6. 8. 2020 12:00 135 68
6. 8. 2020 11:00 136 68
6. 8. 2020 10:00 136 67
6. 8. 2020 09:00 135 68
6. 8. 2020 08:00 136 67
6. 8. 2020 07:00 133 65
6. 8. 2020 06:00 129 59
6. 8. 2020 05:00 127 56

H - water level, Q - discharge
more information
Source data
Labe Basin Vltava Basin Povodí Moravy ČHMÚ